FLOCK 4Y 9

导读

FLOCK 4Y 9是美国Planet公司FLOCK-4Y批次的一颗SuperDove商业遥感卫星,于2023年1月3日发射升空。该卫星属于Planet鸽子卫星星座,配备八个光谱波段,发射后将补充现有在轨遥感卫星星座,提升星座在轨容量,可为农业、林业等多领域提供高质量遥感影像数据,支撑行业应用与决策分析。

基本信息
目录编号:
55069
目录名称:
FLOCK 4Y 9
国际标识:
2023-001BN
轨道中心:
EARTH
卫星名称:
FLOCK 4Y 9
卫星全名:
--
卫星状态:
已陨落 最后检测时间 2025-05-06
发射日期:
2023-01-03 UTC
国别 :
美国 (US)
星等 :
--
该卫星已列入 空间交会检测服务 Space Conjunction Data Service (SCDS) ,当前飞行风险评估等级: 无高风险
轨道信息
数据来源 国际轨道数据
星历时间: 2025-05-01T13:30:20+0800
轨道信息已过期498天
半长轴: 6545.554km
偏心率: 0.001338
轨道倾角: 97.354°
近地点辐角 231.891°
升交点赤经 194.952°
平近点角 128.118°
近地点: 158.661km
远地点: 176.177km
周期: 87.837分钟
每日圈数: 16.393936
详细信息
使用方式:
暂无
与全量物体交会距离演化趋势
与全量物体交会风险概率演化趋势